User: anonymous   Login
Location: Unspecified
(0.0000°N, 0.0000°E)
Time: 12:48:38
(UTC+00:00)
Language:

YAOGAN 12 - Orbit

View from above orbital plane
View from above orbital plane
View from above satellite
View from above satellite

Ground track
Ground track

The orbit data is extracted from the following two-line orbital elements,

1 37875U 11066B   18200.84915318 -.00022947  00000-0 -92745-3 0  9990
2 37875  97.4984 271.6661 0002872  51.2134  83.1165 15.24740519372607
Epoch (UTC): 19 July 2018 20:22:46
Eccentricity: 0.0002872
inclination: 97.4984°
perigee height: 489 km
apogee height: 493 km
right ascension of ascending node: 271.6661°
argument of perigee: 51.2134°
revolutions per day: 15.24740519
mean anomaly at epoch: 83.1165°
orbit number at epoch: 37260

The dashed part of the orbit path shows where the satellite is in the earth's shadow,  

DLR